When you browse on this site, cookies collect data to enhance your experience and personalize the content and advertising you see.
Visit our Privacy Policy to learn more. By continuing to use the site, you agree to this use of cookies and data.
  • In Österreich
  • Länderverzeichnis
  • Für 7 Tage
  • Wassertemperatur
  • Wetterkarte
  • News
  • Widgets
  • user-avatar
    Anmelden

    Stündliche Wetter Ráquira

    Heute, 22 Februar, Samstag

    Zeit Temperatur Niederschläge Wind Luftdruck Luftfeuchtigkeit
    00:00 +15°C° 0.2 mm 0 m/S 584 mmHg 96%
    01:00 +14°C° 0.2 mm 0 m/S 584 mmHg 97%
    02:00 +14°C° 0.8 mm 0 m/S 584 mmHg 96%
    03:00 +15°C° 0.8 mm 0 m/S 584 mmHg 96%
    04:00 +15°C° 0.8 mm 0 m/S 584 mmHg 96%
    05:00 +15°C° 2.5 mm 0 m/S 584 mmHg 96%
    06:00 +15°C° 2.5 mm 0 m/S 584 mmHg 97%
    07:00 +15°C° 2.5 mm 0 m/S 585 mmHg 97%
    08:00 +15°C° 1.8 mm 0 m/S 585 mmHg 95%
    09:00 +16°C° 1.8 mm 1 m/S 585 mmHg 94%
    10:00 +18°C° 1.8 mm 1 m/S 586 mmHg 92%
    11:00 +20°C° 0.2 mm 1 m/S 586 mmHg 83%
    12:00 +22°C° 0.2 mm 1 m/S 587 mmHg 74%
    13:00 +24°C° 0.2 mm 1 m/S 587 mmHg 65%
    14:00 +23°C° 1.2 mm 1 m/S 586 mmHg 71%
    15:00 +22°C° 1.2 mm 1 m/S 585 mmHg 78%
    16:00 +21°C° 1.2 mm 1 m/S 584 mmHg 85%
    17:00 +20°C° 1.1 mm 1 m/S 584 mmHg 89%
    18:00 +16°C° 1.1 mm 0 m/S 584 mmHg 93%
    19:00 +15°C° 1.1 mm 0 m/S 583 mmHg 97%
    20:00 +15°C° 0.2 mm 0 m/S 584 mmHg 97%
    21:00 +14°C° 0.2 mm 0 m/S 584 mmHg 97%
    22:00 +14°C° 0.2 mm 0 m/S 584 mmHg 96%
    23:00 +14°C° 0 mm 0 m/S 584 mmHg 96%

    Morgen, 23 Februar, Sonntag

    Zeit Temperatur Niederschläge Wind Luftdruck Luftfeuchtigkeit
    00:00 +14°C° 0 mm 0 m/S 584 mmHg 96%
    01:00 +13°C° 0 mm 0 m/S 584 mmHg 96%
    02:00 +13°C° 0 mm 0 m/S 583 mmHg 96%
    03:00 +13°C° 0 mm 0 m/S 583 mmHg 96%
    04:00 +13°C° 0 mm 0 m/S 582 mmHg 95%
    05:00 +13°C° 0 mm 0 m/S 583 mmHg 95%
    06:00 +15°C° 0 mm 1 m/S 584 mmHg 94%
    07:00 +15°C° 0 mm 1 m/S 584 mmHg 93%
    08:00 +18°C° 0 mm 1 m/S 585 mmHg 86%
    09:00 +20°C° 0 mm 1 m/S 586 mmHg 79%
    10:00 +22°C° 0 mm 1 m/S 588 mmHg 72%
    11:00 +23°C° 0.4 mm 1 m/S 587 mmHg 72%
    12:00 +23°C° 0.4 mm 1 m/S 587 mmHg 72%
    13:00 +23°C° 0.4 mm 1 m/S 586 mmHg 71%
    14:00 +22°C° 1 mm 1 m/S 585 mmHg 76%
    15:00 +22°C° 1 mm 1 m/S 584 mmHg 82%
    16:00 +21°C° 1 mm 1 m/S 583 mmHg 87%
    17:00 +18°C° 0.7 mm 0 m/S 583 mmHg 90%
    18:00 +17°C° 0.7 mm 0 m/S 583 mmHg 94%
    19:00 +16°C° 0.7 mm 0 m/S 583 mmHg 98%
    20:00 +16°C° 0.3 mm 0 m/S 584 mmHg 97%
    21:00 +15°C° 0.3 mm 0 m/S 584 mmHg 97%
    22:00 +15°C° 0.3 mm 0 m/S 584 mmHg 97%
    23:00 +15°C° 0.1 mm 0 m/S 584 mmHg 97%

    übermorgen, 24 Februar, Montag

    Zeit Temperatur Niederschläge Wind Luftdruck Luftfeuchtigkeit
    00:00 +15°C° 0.1 mm 0 m/S 584 mmHg 97%
    01:00 +15°C° 0.1 mm 0 m/S 583 mmHg 97%
    02:00 +14°C° 0.1 mm 0 m/S 583 mmHg 97%
    03:00 +14°C° 0.1 mm 0 m/S 583 mmHg 96%
    04:00 +14°C° 0.1 mm 0 m/S 582 mmHg 96%
    05:00 +15°C° 0 mm 1 m/S 583 mmHg 95%
    06:00 +16°C° 0 mm 1 m/S 583 mmHg 95%
    07:00 +16°C° 0 mm 1 m/S 584 mmHg 94%
    08:00 +18°C° 0.1 mm 1 m/S 585 mmHg 88%
    09:00 +20°C° 0.1 mm 1 m/S 586 mmHg 82%
    10:00 +22°C° 0.1 mm 1 m/S 587 mmHg 75%
    11:00 +22°C° 0.5 mm 1 m/S 587 mmHg 73%
    12:00 +23°C° 0.5 mm 1 m/S 586 mmHg 71%
    13:00 +23°C° 0.5 mm 1 m/S 586 mmHg 70%
    14:00 +23°C° 1.2 mm 1 m/S 585 mmHg 75%
    15:00 +22°C° 1.2 mm 1 m/S 584 mmHg 81%
    16:00 +21°C° 1.2 mm 1 m/S 583 mmHg 86%
    17:00 +20°C° 1.3 mm 1 m/S 583 mmHg 90%
    18:00 +16°C° 1.3 mm 0 m/S 583 mmHg 93%
    19:00 +15°C° 1.3 mm 0 m/S 583 mmHg 97%
    20:00 +15°C° 0.5 mm 0 m/S 583 mmHg 97%
    21:00 +15°C° 0.5 mm 0 m/S 584 mmHg 97%
    22:00 +15°C° 0.5 mm 0 m/S 584 mmHg 97%
    23:00 +15°C° 0.1 mm 0 m/S 584 mmHg 97%

    25 Februar, Dienstag

    Zeit Temperatur Niederschläge Wind Luftdruck Luftfeuchtigkeit
    00:00 +14°C° 0.1 mm 0 m/S 583 mmHg 97%
    01:00 +14°C° 0.1 mm 0 m/S 583 mmHg 96%
    02:00 +14°C° 0 mm 0 m/S 583 mmHg 96%
    03:00 +14°C° 0 mm 0 m/S 582 mmHg 96%
    04:00 +14°C° 0 mm 0 m/S 582 mmHg 95%
    05:00 +14°C° 0 mm 0 m/S 583 mmHg 94%
    06:00 +14°C° 0 mm 0 m/S 583 mmHg 93%
    07:00 +15°C° 0 mm 0 m/S 584 mmHg 92%
    08:00 +17°C° 0.1 mm 0 m/S 585 mmHg 84%
    09:00 +21°C° 0.1 mm 1 m/S 586 mmHg 76%
    10:00 +23°C° 0.1 mm 1 m/S 588 mmHg 68%
    11:00 +23°C° 1.1 mm 1 m/S 587 mmHg 71%
    12:00 +23°C° 1.1 mm 1 m/S 586 mmHg 73%
    13:00 +23°C° 1.1 mm 1 m/S 585 mmHg 76%
    14:00 +22°C° 1.6 mm 1 m/S 584 mmHg 79%
    15:00 +22°C° 1.6 mm 1 m/S 584 mmHg 82%
    16:00 +21°C° 1.6 mm 1 m/S 583 mmHg 84%
    17:00 +20°C° 0.7 mm 1 m/S 583 mmHg 89%
    18:00 +18°C° 0.7 mm 1 m/S 583 mmHg 93%
    19:00 +15°C° 0.7 mm 0 m/S 582 mmHg 97%
    20:00 +15°C° 0 mm 0 m/S 583 mmHg 97%
    21:00 +14°C° 0 mm 0 m/S 583 mmHg 97%
    22:00 +14°C° 0 mm 0 m/S 583 mmHg 97%
    23:00 +14°C° 0 mm 0 m/S 583 mmHg 97%

    26 Februar, Mittwoch

    Zeit Temperatur Niederschläge Wind Luftdruck Luftfeuchtigkeit
    00:00 +13°C° 0 mm 0 m/S 583 mmHg 97%
    01:00 +13°C° 0 mm 0 m/S 582 mmHg 97%
    02:00 +13°C° 0 mm 0 m/S 582 mmHg 97%
    03:00 +13°C° 0 mm 0 m/S 582 mmHg 97%
    04:00 +13°C° 0 mm 0 m/S 582 mmHg 96%
    05:00 +13°C° 0 mm 0 m/S 582 mmHg 95%
    06:00 +13°C° 0 mm 0 m/S 583 mmHg 95%
    07:00 +14°C° 0 mm 0 m/S 583 mmHg 94%
    08:00 +16°C° 0 mm 0 m/S 585 mmHg 86%
    09:00 +18°C° 0 mm 0 m/S 586 mmHg 78%
    10:00 +20°C° 0 mm 0 m/S 588 mmHg 70%
    11:00 +23°C° 0.2 mm 1 m/S 587 mmHg 68%
    12:00 +23°C° 0.2 mm 1 m/S 587 mmHg 65%
    13:00 +24°C° 0.2 mm 1 m/S 586 mmHg 63%
    14:00 +23°C° 0.8 mm 1 m/S 585 mmHg 70%
    15:00 +22°C° 0.8 mm 1 m/S 584 mmHg 77%
    16:00 +21°C° 0.8 mm 1 m/S 583 mmHg 84%
    17:00 +19°C° 0.9 mm 1 m/S 583 mmHg 88%
    18:00 +18°C° 0.9 mm 1 m/S 583 mmHg 93%
    19:00 +15°C° 0.9 mm 0 m/S 583 mmHg 97%
    20:00 +15°C° 0.2 mm 0 m/S 583 mmHg 97%
    21:00 +15°C° 0.2 mm 0 m/S 583 mmHg 97%
    22:00 +14°C° 0.2 mm 0 m/S 584 mmHg 97%
    23:00 +14°C° 0 mm 0 m/S 583 mmHg 97%

    27 Februar, Donnerstag

    Zeit Temperatur Niederschläge Wind Luftdruck Luftfeuchtigkeit
    00:00 +14°C° 0 mm 0 m/S 583 mmHg 97%
    01:00 +14°C° 0 mm 0 m/S 583 mmHg 97%
    02:00 +14°C° 0 mm 0 m/S 583 mmHg 97%
    03:00 +14°C° 0 mm 0 m/S 582 mmHg 97%
    04:00 +13°C° 0 mm 0 m/S 582 mmHg 96%
    05:00 +14°C° 0 mm 0 m/S 583 mmHg 95%
    06:00 +14°C° 0 mm 0 m/S 583 mmHg 94%
    07:00 +14°C° 0 mm 0 m/S 584 mmHg 93%
    08:00 +16°C° 0.2 mm 0 m/S 585 mmHg 87%
    09:00 +20°C° 0.2 mm 1 m/S 586 mmHg 81%
    10:00 +21°C° 0.2 mm 1 m/S 587 mmHg 75%
    11:00 +22°C° 0.6 mm 1 m/S 586 mmHg 75%
    12:00 +22°C° 0.6 mm 1 m/S 586 mmHg 74%
    13:00 +23°C° 0.6 mm 1 m/S 585 mmHg 73%
    14:00 +22°C° 1.2 mm 1 m/S 585 mmHg 77%
    15:00 +21°C° 1.2 mm 1 m/S 584 mmHg 81%
    16:00 +21°C° 1.2 mm 1 m/S 583 mmHg 85%
    17:00 +19°C° 0.6 mm 1 m/S 583 mmHg 89%
    18:00 +18°C° 0.6 mm 1 m/S 583 mmHg 93%
    19:00 +15°C° 0.6 mm 0 m/S 583 mmHg 97%
    20:00 +14°C° 0.1 mm 0 m/S 583 mmHg 97%
    21:00 +14°C° 0.1 mm 0 m/S 584 mmHg 98%
    22:00 +14°C° 0.1 mm 0 m/S 584 mmHg 98%
    23:00 +14°C° 0 mm 0 m/S 584 mmHg 97%
    Mehr zeigen